User: anonymous
Location: Tyler Bend Campground
(35.9875°N, 92.7606°W)
Time: 07:30:13
(UTC-05:00)
Language:

CZ-2C R/B - Orbit

View from above orbital plane
View from above orbital plane
View from above satellite
View from above satellite

Ground track
Ground track

The orbit data is extracted from the following two-line orbital elements,

1 36089U 09061B   14107.19115378  .00000368  00000-0  10429-3 0  3046
2 36089 098.1119 142.4505 0082425 007.3109 032.3140 14.49133895234109
Epoch (UTC): 17 April 2014 04:35:15
Eccentricity: 0.0082425
inclination: 98.1119°
perigee height: 670 km
apogee height: 787 km
right ascension of ascending node: 142.4505°
argument of perigee: 7.3109°
revolutions per day: 14.49133895
mean anomaly at epoch: 32.3140°
orbit number at epoch: 23410

The dashed part of the orbit path shows where the satellite is in the earth's shadow,  

DLR